Regional Weather Roundup
Issued by NWS Cleveland, OH

Home | Current Version | Previous Version | Graphics & Text | Print | Product List | Glossary On
Versions: 1 2 3 4 5 6 7 8 9 10 11 12 13 14 15 16 17 18 19 20 21 22 23 24 25 26 27 28 29 30 31 32 33 34 35 36 37 38 39 40 41 42 43 44 45 46 47 48 49 50
000
ASUS41 KCLE 161702
RWRCLE
OHIO REGIONAL WEATHER ROUNDUP
NATIONAL WEATHER SERVICE CLEVELAND, OH
100 PM EDT WED APR 16 2014

NOTE: "FAIR" INDICATES FEW OR NO CLOUDS BELOW 12,000 FEET WITH NO
SIGNIFICANT WEATHER AND/OR OBSTRUCTIONS TO VISIBILITY.

OHZ001>008-015>018-024>027-034-035-043-044-161800-
   NORTHWEST OHIO

CITY           SKY/WX    TMP DP  RH WIND       PRES   REMARKS
DEFIANCE       SUNNY     41  18  39 SE12      30.42F
FINDLAY        SUNNY     38  21  50 SE8       30.42F
TOLEDO EXPRESS SUNNY     39  16  39 SE13      30.43F
TOLEDO EXEC    SUNNY     40  18  41 SE9       30.45F
LIMA           SUNNY     41  22  46 SE10G17   30.41F
$$

OHZ009>014-019>023-028>033-038-089-161800-
   NORTHEAST OHIO

CITY           SKY/WX    TMP DP  RH WIND       PRES   REMARKS
CLE-HOPKINS    MOSUNNY   38  18  44 VRB3      30.49F
CLE-LAKEFRONT  SUNNY     36  18  48 N9        30.47F
CUY CO. ARPT   MOSUNNY   36  14  41 E9        30.48F
LORAIN-ELYRIA  SUNNY     38  17  42 S8        30.46F
ASHTABULA      SUNNY     34  17  50 VRB3      30.48F
AKRON-CANTON   MOSUNNY   39  15  37 SE6       30.44F
WOOSTER        SUNNY     35  21  56 SE10      30.45F WCI  27
MANSFIELD      SUNNY     35  22  58 SE8       30.42F WCI  29
YOUNGSTOWN     MOSUNNY   36  17  46 NE7       30.45F
$$

OHZ042-051>053-060>062-070>072-077>081-161800-
  SOUTHWEST OHIO

CITY           SKY/WX    TMP DP  RH WIND       PRES   REMARKS
CINC-COVINGTON PTSUNNY   43  16  33 NE12      30.39F
CINC-LUNKEN    SUNNY     43  19  38 NE8       30.42F
HAMILTON       SUNNY     45  18  34 E10       30.42F
DAYTON         SUNNY     41  18  39 E10       30.41F
WRIGHT-PAT AFB SUNNY     41  17  38 E12G17    30.41F
DAYTON GENERAL SUNNY     41  19  41 E13       30.39F
WILMINGTON     SUNNY     39  17  41 E12       30.40F
$$

OHZ036-037-039>041-045>050-054>059-063>069-073>076-082>088-161800-
  CENTRAL AND SOUTHEAST OHIO

CITY           SKY/WX    TMP DP  RH WIND       PRES   REMARKS
COLUMBUS       MOSUNNY   41  21  44 VRB6      30.43F
OSU AIRPORT    SUNNY     40  17  39 E6        30.42F
BOLTON FIELD   SUNNY     39  21  48 E9        30.43F
RICKENBACK AFB NOT AVBL
NEWARK         SUNNY     39  19  44 VRB6      30.43F
MARION         SUNNY     38  23  55 VRB7      30.43F
LANCASTER      SUNNY     42  21  43 MISG      30.43F
ZANESVILLE     SUNNY     39  18  42 E8        30.44F
NEW PHILLY     SUNNY     38  14  37 VRB3      30.46F
$$



USA.gov is the U.S. government's official web portal to all federal, state and local government web resources and services.